Location: ?????
(31.8092°N, 35.2590°E)
Time: 04:23:14
(UTC+00:00)

Lacrosse 5 - Pass Details

Date: 01 November 2021
Orbit: 714 x 724 km, 57.0° (Epoch: 28 August)

Event Time Altitude Azimuth Distance (km) Brightness Sun altitude
Rises 17:07:17 0° 272° (W) 3,131 6.4 -29.7°
Reaches altitude 10° 17:11:15 10° 303° (WNW) 2,213 5.0 -30.6°
Maximum altitude 17:13:16 12° 326° (NNW) 2,064 4.6 -31.0°
Enters shadow 17:15:10 10° 349° (NNW) 2,197 4.5 -31.4°
